User: anonymous   Login
Location: Unspecified
(0.0000°N, 0.0000°E)
Time: 10:23:25
(UTC+00:00)
Language:

ZHOU ENLAI - Orbit

View from above orbital plane
View from above orbital plane
View from above satellite
View from above satellite

Ground track
Ground track

The orbit data is extracted from the following two-line orbital elements,

1 43156U 18008B   19050.14959707  .00000823  00000-0  53778-4 0  9990
2 43156  97.5042 125.0616 0015672  18.9847  38.5847 15.10431409 59756
Epoch (UTC): 19 February 2019 03:35:25
Eccentricity: 0.0015672
inclination: 97.5042°
perigee height: 524 km
apogee height: 546 km
right ascension of ascending node: 125.0616°
argument of perigee: 18.9847°
revolutions per day: 15.10431409
mean anomaly at epoch: 38.5847°
orbit number at epoch: 5975

The dashed part of the orbit path shows where the satellite is in the earth's shadow,  

DLR